Location: Chmeln�
(49.6483°N, 14.9871°E)
Time: 08:23:59
(UTC+00:00)

Cosmos 1833 Rocket - Pass Details

Date: 18 September 2020
Orbit: 831 x 841 km, 71.0° (Epoch: 24 October)

Event Time Altitude Azimuth Distance (km) Brightness Sun altitude
Rises 18:15:32 0° 333° (NNW) 3,407 6.5 -11.9°
Reaches altitude 10° 18:18:52 10° 353° (N) 2,470 5.5 -12.4°
Maximum altitude 18:22:36 18° 35° (NE) 1,985 4.5 -13.0°
Enters shadow 18:25:46 12° 71° (ENE) 2,345 4.5 -13.5°
